Torna al catalogo

SL-12 R/B(2)

AttivoGEO
NORAD 17874·ROCKET BODY·🇷🇺 Russia

Lanciato Feb 15, 1984 da Baikonur Cosmodrome

Loading…

TLE

AggiornatoSource: Space-Track

Epoca: Sep 14, 2026, 15:55 UTC

1 17874U 84016F   26257.66324141 -.00000208  00000-0  00000-0 0  9996
2 17874   8.4056 310.3633 0035403 232.7468 133.8417  1.00323219123754

Traccia SL-12 R/B(2) in tempo reale con AllMySat

Download on the App Store